Location: Kosice
(0.0000°N, 21.2500°E)
Time: 13:01:16
(UTC+01:00)

Daily predictions for brighter satellites

Satellite Brightness Start Highest point End
(mag) Time Altitude Azimuth Time Altitude Azimuth Time Altitude Azimuth
NOAA 12 4.1 17:59:24 10° SSE 18:04:42 72° ENE 18:10:00 10° N
Cosmos 1455 Rocket 3.4 18:02:30 10° SSE 18:06:46 45° E 18:10:59 10° NNE
Cosmos 2278 4.4 18:01:56 10° SSW 18:07:29 59° WNW 18:13:02 10° N
Cosmos 1934 Rocket 4.2 18:02:57 10° NNE 18:08:45 47° E 18:14:31 10° SSE
CZ-3B R/B 2.9 18:07:19 10° SSW 18:11:14 33° SE 18:21:09 10° ENE
SL-16 R/B 3.8 18:09:02 10° SE 18:11:46 14° ESE 18:14:30 10° ENE
Cosmos 1025 Rocket 3.0 18:07:55 10° N 18:12:17 85° E 18:16:42 10° S
YAOGAN 1 2.5 18:14:31 10° SSE 18:18:50 68° ENE 18:23:07 10° N
Hubble Space Telescope 3.4 18:17:44 10° WNW 18:19:50 14° NNW 18:21:56 10° N
Meteosat 1 Rocket2 3.1 18:18:56 10° SW 18:22:55 73° SSE 18:28:01 12° ENE
Meteor 1-15 Rocket 4.3 18:18:44 10° S 18:24:31 88° E 18:30:11 10° N
NOSS 3-2 (C) 3.9 18:25:25 10° S 18:30:22 31° ESE 18:35:08 11° NE
ARIANE 44L R/B 4.1 18:26:46 10° W 18:30:53 82° S 18:47:35 17° E
ARIANE 44L R/B 4.1 18:26:46 10° W 18:30:53 82° S 18:47:36 17° E
ARIANE 44L R/B 4.1 18:26:47 10° W 18:30:53 82° S 18:47:36 17° E
Ariane Rocket 3.0 18:27:04 10° SSE 18:32:06 61° ENE 18:37:06 10° N
Alouette 2 Rocket 4.0 18:30:44 10° SSE 18:34:15 38° E 18:38:49 10° NNE
Cosmos 1842 3.4 18:31:08 10° N 18:34:58 77° W 18:38:50 10° S
Cosmos 2297 Rocket 3.7 18:32:32 10° NE 18:34:57 15° ENE 18:34:57 15° ENE
Meteor 2-12 Rocket 4.4 18:32:06 10° N 18:38:04 65° E 18:44:03 10° SSE
Aurora 2 Rocket 3.7 18:36:28 10° SSW 18:38:38 17° SSE 18:39:09 16° SE
NOSS 3-2 (A) 3.1 18:34:33 10° SSW 18:40:09 74° ESE 18:45:44 10° NNE
Meteor 1-21 4.4 18:34:42 10° N 18:40:22 80° W 18:46:00 10° S
Cosmos 2219 3.4 18:36:44 10° N 18:42:04 45° ENE 18:47:25 10° SSE
Cosmos 1980 Rocket 3.0 18:38:03 10° SSW 18:43:30 53° WNW 18:48:58 10° N
PSLV R/B 4.4 18:41:27 10° NNW 18:43:30 22° NNE 18:43:30 22° NNE
Cosmos 1340 3.7 18:40:24 10° SSW 18:44:03 48° W 18:47:42 10° N
IUS-17 SRM-1 3.4 18:45:17 10° NNW 18:47:01 21° NNE 18:47:01 21° NNE
Cosmos 1892 Rocket 3.8 18:44:26 10° NNE 18:48:31 41° E 18:52:38 10° SSE
Cosmos 1302 Rocket 3.9 18:45:58 10° N 18:51:11 76° ENE 18:56:27 10° SSE
Yuri Rocket 4.3 18:45:57 10° SW 18:52:03 37° SSE 18:53:53 28° ESE
GPS 2-05 Rocket1 3.9 18:52:53 10° NNW 18:54:39 25° N 18:54:39 25° N
ATLAS 3B CENTAUR R/B 2.6 18:55:32 10° WNW 18:56:51 14° NW 18:57:11 13° NNW
Cosmos 1707 4.5 18:53:16 10° NNE 18:54:30 18° NNE 18:54:30 18° NNE
ATLAS 3B R/B 2.7 18:49:57 10° SSW 18:57:12 67° ESE 19:04:10 10° NNE
CZ-2D R/B 3.1 18:55:27 20° SSE 18:57:58 60° ENE 19:01:43 10° N
SWIFT 3.5 18:54:43 10° NW 18:58:19 27° NNE 18:58:42 27° NNE
Cosmos 1000 Rocket 4.4 18:54:42 10° S 19:01:03 87° E 19:07:22 10° N
Tiangong 2 3.6 18:58:56 10° S 18:59:29 13° S 18:59:29 13° S
Ariane H10+ 2.3 19:02:11 10° NW 19:04:49 34° NNE 19:05:17 33° NNE
CENTAUR R/B 3.0 19:00:44 10° S 19:04:15 29° SE 19:04:15 29° SE
Ariane H10+ 1.8 19:02:14 10° W 19:05:24 72° WNW 19:05:24 72° WNW
YAOGAN 6 3.2 19:03:39 10° S 19:07:17 58° WSW 19:10:56 10° NNW
Lacrosse 5 rocket 4.1 19:11:01 10° WNW 19:14:06 19° WSW 19:17:16 10° SSW
Cosmos 1766 3.4 19:13:14 10° S 19:17:06 69° W 19:18:11 44° NNW
Palapa 6 Rocket 4.4 19:18:42 10° WNW 19:26:42 89° SSW 19:28:59 52° ESE
Meteor 1-22 Rocket 4.4 19:24:07 10° SSW 19:29:26 62° W 19:34:37 10° N
Cosmos 2322 Rocket 2.1 19:27:01 10° SSW 19:32:39 85° WNW 19:33:23 68° N
Cosmos 2227 Rocket 2.8 19:29:33 10° N 19:33:23 44° N 19:33:23 44° N
SPOT 3 Rocket 4.2 19:37:04 45° NNW 19:37:04 45° NNW 19:40:36 10° NNW
Maqsat-B 4.2 19:36:45 10° WNW 19:42:50 34° NNW 19:42:50 34° NNW
BLOCK-DM UPPERSTAGE 4.0 19:44:31 10° W 19:47:41 66° W 19:47:41 66° W
SL-16 R/B 3.3 19:50:21 10° SW 19:55:36 40° WNW 19:57:33 30° NNW
Ariane H10 4.1 19:49:24 10° W 19:58:52 45° WNW 19:58:52 45° WNW
Cosmos 2297 Rocket 4.1 20:14:21 10° NW 20:16:53 24° WNW 20:16:53 24° WNW
CZ-3B R/B 4.3 21:01:13 10° W 21:42:26 10° NE 21:42:28 10° NE
